STARLINK-38413, 100635

Orbit data source: Space-Track

STARLINK-38413, 100635 is a payload satellite owned by SpaceX/Seattle (US) in LEO that was launched on Sun, 06 Sep 2026 UTC launched from the Air Force Western Test Range (AFWTR). Payload-class satellites include a variety of spacecraft equipped with specific instruments for various scientific and technological missions. These include communications satellites like Starlink; space stations such as the ISS; scientific satellites like the Hubble; Earth observation satellites from companies like Planet Labs, Umbra, and HawkEye 360; GPS; miniature CubeSats for education and research; and military/defense satellites.

Not visible in the next 10 days
Identifier
100635, 2026-204W
Orbit
LEO
Country
Flag of USUS
Related business
Manufacturer
SpaceX/Seattle
Mission
Operational spacecraft
Bus & Motor
STARLINK V2MO, Unknown motor
Mass
575 kg wet, ~530 kg dry
Launch date (UTC)
2026-09-06 (5 days ago)
Launch vehicle
Unknown
Launch site
Air Force Western Test Range (AFWTR)
Object type
Payload
Rocket body
Debris
Shape & HBR
BOX + PAN, 17.7 m
Radar Cross Section
RCS unknown

Expand to show TLE details & history
Last TLE update: 22 hours ago

TLE from 22 hours ago
0 STARLINK-38413
1 A0635U          26253.50635457 -.00310544  39411-4 -55796-3 0  9993
2 A0635  69.9974 266.4341 0003824 268.9269  91.1505 16.01345424   635
Epoch: 2026-09-10T12:09Z
TLE epoch observation values (Epoch: 2026-09-10T12:09:09.034Z)
Latitude
-0°
Longitude
94.60337°
Altitude
273.277 km
Speed
7.744 km/s
True Right ascension
17h 45m 44s
True Declination
0° 00' 00"
Sunlit
Object was in daylight at epoch
Visualization orbit readout
Latitude
Unknown
Longitude
Unknown
Altitude
Unknown
Speed
Unknown
Apparent Right ascension
Unknown
Apparent Declination
Unknown
Sunlit
N/A
Visualization observer readout
Local Sidereal Time
02:29:20
Azimuth
Unknown
Elevation
Unknown
Doppler factor
Unknown
Orbital elements
Apogee altitude
271.089 km
Perigee altitude
266.005 km
Semi-major axis
6,646.684 km
Eccentricity
0.00038
Inclination
69.9974°
RAAN
266.4341°
Arg. of periapsis
268.9269°
True anomaly
91.19431°
Mean anomaly
91.1505°
Eccentric anomaly
91.17241°
Mean motion
4.00531 °/min
Orbital period
89.88 mins
BSTAR
-0.00055796
Loading maneuver chart data...
Computing Atmospheric mass density...
Loading historical data...
Loading historical data...
Loading historical data...
Loading historical data...
Loading historical data...
Loading historical data...
Loading historical data...

Documentation

Showing up to 5 results
|